Time,TemperatureF,DewpointF,PressureIn,WindDirection,WindDirectionDegrees,WindSpeedMPH,WindSpeedGustMPH,Humidity,HourlyPrecipIn,Conditions,Clouds,dailyrainin,SoftwareType,DateUTC
2013-05-21 00:00:00,80.9,70.6,29.61,South,169,17.0,17.0,71,0.00,,,0.00,Wunderground v.1.15,2013-05-21 05:00:00,
2013-05-21 00:10:00,80.7,70.8,29.61,SE,145,16.0,23.0,72,0.00,,,0.00,Wunderground v.1.15,2013-05-21 05:10:00,
2013-05-21 00:15:00,80.4,70.5,29.61,SSE,153,16.0,23.0,72,0.00,,,0.00,Wunderground v.1.15,2013-05-21 05:15:00,
2013-05-21 00:25:00,79.9,70.5,29.61,SE,146,14.0,15.0,73,0.00,,,0.00,Wunderground v.1.15,2013-05-21 05:25:00,
2013-05-21 00:30:00,79.9,70.5,29.61,SSW,195,14.0,16.0,73,0.00,,,0.00,Wunderground v.1.15,2013-05-21 05:30:00,
2013-05-21 00:35:00,79.7,70.7,29.62,South,182,15.0,16.0,74,0.00,,,0.00,Wunderground v.1.15,2013-05-21 05:35:00,
2013-05-21 00:40:00,79.4,70.8,29.63,South,172,15.0,17.0,75,0.00,,,0.00,Wunderground v.1.15,2013-05-21 05:40:00,
2013-05-21 00:45:00,78.9,70.7,29.63,South,178,15.0,17.0,76,0.00,,,0.00,Wunderground v.1.15,2013-05-21 05:45:00,
2013-05-21 00:55:00,78.3,70.9,29.62,South,182,16.0,17.0,78,0.00,,,0.00,Wunderground v.1.15,2013-05-21 05:55:00,
2013-05-21 01:00:00,78.0,70.6,29.63,South,186,14.0,14.0,78,0.00,,,0.00,Wunderground v.1.15,2013-05-21 06:00:00,
2013-05-21 01:10:00,77.7,70.7,29.64,SSE,148,13.0,13.0,79,0.00,,,0.00,Wunderground v.1.15,2013-05-21 06:10:00,
2013-05-21 01:15:00,77.6,70.6,29.64,SSE,164,12.0,18.0,79,0.00,,,0.00,Wunderground v.1.15,2013-05-21 06:15:00,
2013-05-21 01:20:00,77.5,70.5,29.65,South,171,13.0,13.0,79,0.00,,,0.00,Wunderground v.1.15,2013-05-21 06:20:00,
2013-05-21 01:25:00,77.6,70.6,29.65,SSW,199,14.0,14.0,79,0.00,,,0.00,Wunderground v.1.15,2013-05-21 06:25:00,
2013-05-21 01:35:00,77.5,70.5,29.64,SW,236,13.0,17.0,79,0.00,,,0.00,Wunderground v.1.15,2013-05-21 06:35:00,
2013-05-21 01:40:00,77.4,70.4,29.65,South,191,14.0,14.0,79,0.00,,,0.00,Wunderground v.1.15,2013-05-21 06:40:00,
2013-05-21 01:45:00,77.3,70.3,29.65,SW,236,14.0,14.0,79,0.00,,,0.00,Wunderground v.1.15,2013-05-21 06:45:00,
2013-05-21 01:50:00,77.2,70.2,29.65,SSW,196,14.0,15.0,79,0.00,,,0.00,Wunderground v.1.15,2013-05-21 06:50:00,
2013-05-21 01:55:00,77.1,70.1,29.65,South,189,13.0,17.0,79,0.00,,,0.00,Wunderground v.1.15,2013-05-21 06:55:00,
2013-05-21 02:00:00,77.0,70.0,29.65,South,180,13.0,13.0,79,0.00,,,0.00,Wunderground v.1.15,2013-05-21 07:00:00,
2013-05-21 02:10:00,76.7,70.1,29.65,SSE,157,11.0,20.0,80,0.00,,,0.00,Wunderground v.1.15,2013-05-21 07:10:00,
2013-05-21 02:20:00,76.4,69.8,29.66,SSE,160,12.0,17.0,80,0.00,,,0.00,Wunderground v.1.15,2013-05-21 07:20:00,
2013-05-21 02:25:00,76.3,69.7,29.66,SSE,163,12.0,17.0,80,0.00,,,0.00,Wunderground v.1.15,2013-05-21 07:25:00,
2013-05-21 02:30:00,76.2,69.9,29.66,South,187,11.0,14.0,81,0.00,,,0.00,Wunderground v.1.15,2013-05-21 07:30:00,
2013-05-21 02:35:00,76.1,69.8,29.66,SSW,195,11.0,14.0,81,0.00,,,0.00,Wunderground v.1.15,2013-05-21 07:35:00,
2013-05-21 02:40:00,75.9,69.6,29.66,SSW,204,11.0,11.0,81,0.00,,,0.00,Wunderground v.1.15,2013-05-21 07:40:00,
2013-05-21 02:50:00,75.8,69.9,29.66,SSE,148,13.0,15.0,82,0.00,,,0.00,Wunderground v.1.15,2013-05-21 07:50:00,
2013-05-21 02:55:00,75.7,69.8,29.67,South,180,12.0,15.0,82,0.00,,,0.00,Wunderground v.1.15,2013-05-21 07:55:00,
2013-05-21 03:00:00,75.6,69.7,29.66,South,169,11.0,11.0,82,0.00,,,0.00,Wunderground v.1.15,2013-05-21 08:00:00,
2013-05-21 03:10:00,75.3,69.4,29.66,South,188,10.0,20.0,82,0.00,,,0.00,Wunderground v.1.15,2013-05-21 08:10:00,
2013-05-21 03:15:00,75.3,69.4,29.66,South,173,10.0,20.0,82,0.00,,,0.00,Wunderground v.1.15,2013-05-21 08:15:00,
2013-05-21 03:20:00,75.2,69.3,29.67,South,191,9.0,11.0,82,0.00,,,0.00,Wunderground v.1.15,2013-05-21 08:20:00,
2013-05-21 03:25:00,75.1,69.2,29.67,SSW,202,10.0,11.0,82,0.00,,,0.00,Wunderground v.1.15,2013-05-21 08:25:00,
2013-05-21 03:35:00,75.0,69.5,29.67,SSW,207,11.0,16.0,83,0.00,,,0.00,Wunderground v.1.15,2013-05-21 08:35:00,
2013-05-21 03:40:00,75.0,69.5,29.67,SSW,193,10.0,10.0,83,0.00,,,0.00,Wunderground v.1.15,2013-05-21 08:40:00,
2013-05-21 03:45:00,75.0,69.5,29.67,South,180,9.0,15.0,83,0.00,,,0.00,Wunderground v.1.15,2013-05-21 08:45:00,
2013-05-21 03:50:00,75.0,69.5,29.67,SSW,193,10.0,10.0,83,0.00,,,0.00,Wunderground v.1.15,2013-05-21 08:50:00,
2013-05-21 04:00:00,74.9,69.4,29.67,South,186,10.0,10.0,83,0.00,,,0.00,Wunderground v.1.15,2013-05-21 09:00:00,
2013-05-21 04:10:00,74.9,69.7,29.67,South,191,10.0,10.0,84,0.00,,,0.00,Wunderground v.1.15,2013-05-21 09:10:00,
2013-05-21 04:15:00,74.8,69.6,29.67,SSE,167,11.0,12.0,84,0.00,,,0.00,Wunderground v.1.15,2013-05-21 09:15:00,
2013-05-21 04:20:00,74.8,69.6,29.67,South,170,11.0,17.0,84,0.00,,,0.00,Wunderground v.1.15,2013-05-21 09:20:00,
2013-05-21 04:25:00,74.7,69.5,29.68,South,169,10.0,17.0,84,0.00,,,0.00,Wunderground v.1.15,2013-05-21 09:25:00,
2013-05-21 04:30:00,74.6,69.4,29.68,South,173,10.0,10.0,84,0.00,,,0.00,Wunderground v.1.15,2013-05-21 09:30:00,
2013-05-21 04:35:00,74.6,69.4,29.68,SSW,193,11.0,11.0,84,0.00,,,0.00,Wunderground v.1.15,2013-05-21 09:35:00,
2013-05-21 04:45:00,74.6,69.4,29.68,SSE,156,9.0,10.0,84,0.00,,,0.00,Wunderground v.1.15,2013-05-21 09:45:00,
2013-05-21 04:50:00,74.6,69.8,29.69,South,187,8.0,13.0,85,0.00,,,0.00,Wunderground v.1.15,2013-05-21 09:50:00,
2013-05-21 04:55:00,74.6,69.8,29.69,SSE,151,8.0,13.0,85,0.00,,,0.00,Wunderground v.1.15,2013-05-21 09:55:00,
2013-05-21 05:00:00,74.6,69.8,29.69,South,179,8.0,12.0,85,0.00,,,0.00,Wunderground v.1.15,2013-05-21 10:00:00,
2013-05-21 05:10:00,74.7,69.9,29.69,SSE,163,8.0,10.0,85,0.00,,,0.00,Wunderground v.1.15,2013-05-21 10:10:00,
2013-05-21 05:15:00,74.7,69.9,29.69,South,176,8.0,10.0,85,0.00,,,0.00,Wunderground v.1.15,2013-05-21 10:15:00,
2013-05-21 05:20:00,74.7,69.9,29.69,South,182,9.0,9.0,85,0.00,,,0.00,Wunderground v.1.15,2013-05-21 10:20:00,
2013-05-21 05:25:00,74.8,70.0,29.69,SSE,162,9.0,9.0,85,0.00,,,0.00,Wunderground v.1.15,2013-05-21 10:25:00,
2013-05-21 05:35:00,74.8,70.0,29.69,SSE,152,9.0,9.0,85,0.00,,,0.00,Wunderground v.1.15,2013-05-21 10:35:00,
2013-05-21 05:40:00,74.8,70.0,29.69,SE,144,8.0,8.0,85,0.00,,,0.00,Wunderground v.1.15,2013-05-21 10:40:00,
2013-05-21 05:45:00,74.7,69.9,29.69,SSW,198,9.0,9.0,85,0.00,,,0.00,Wunderground v.1.15,2013-05-21 10:45:00,
2013-05-21 05:50:00,74.7,69.9,29.69,SSE,159,9.0,9.0,85,0.00,,,0.00,Wunderground v.1.15,2013-05-21 10:50:00,
2013-05-21 06:00:00,74.7,69.9,29.70,SSW,199,9.0,9.0,85,0.00,,,0.00,Wunderground v.1.15,2013-05-21 11:00:00,
2013-05-21 06:10:00,74.8,70.0,29.70,South,172,9.0,9.0,85,0.00,,,0.00,Wunderground v.1.15,2013-05-21 11:10:00,
2013-05-21 06:15:00,74.8,70.0,29.70,SSW,204,8.0,9.0,85,0.00,,,0.00,Wunderground v.1.15,2013-05-21 11:15:00,
2013-05-21 06:20:00,74.8,70.0,29.70,South,182,7.0,7.0,85,0.00,,,0.00,Wunderground v.1.15,2013-05-21 11:20:00,
2013-05-21 06:25:00,74.7,69.9,29.71,South,179,6.0,7.0,85,0.00,,,0.00,Wunderground v.1.15,2013-05-21 11:25:00,
2013-05-21 06:30:00,74.7,69.9,29.71,South,178,8.0,8.0,85,0.00,,,0.00,Wunderground v.1.15,2013-05-21 11:30:00,
2013-05-21 06:40:00,74.7,69.9,29.71,South,180,8.0,8.0,85,0.00,,,0.00,Wunderground v.1.15,2013-05-21 11:40:00,
2013-05-21 06:45:00,74.7,69.9,29.71,South,175,8.0,8.0,85,0.00,,,0.00,Wunderground v.1.15,2013-05-21 11:45:00,
2013-05-21 06:50:00,74.7,70.2,29.71,South,180,7.0,7.0,86,0.00,,,0.00,Wunderground v.1.15,2013-05-21 11:50:00,
2013-05-21 06:55:00,74.6,70.1,29.72,South,176,7.0,7.0,86,0.00,,,0.00,Wunderground v.1.15,2013-05-21 11:55:00,
2013-05-21 07:00:00,74.7,70.2,29.72,SSE,160,7.0,7.0,86,0.00,,,0.00,Wunderground v.1.15,2013-05-21 12:00:00,
2013-05-21 07:10:00,74.7,70.2,29.72,South,188,7.0,7.0,86,0.00,,,0.00,Wunderground v.1.15,2013-05-21 12:10:00,
2013-05-21 07:15:00,74.8,70.0,29.72,SE,136,8.0,10.0,85,0.00,,,0.00,Wunderground v.1.15,2013-05-21 12:15:00,
2013-05-21 07:20:00,74.9,70.1,29.72,SW,217,8.0,11.0,85,0.00,,,0.00,Wunderground v.1.15,2013-05-21 12:20:00,
2013-05-21 07:30:00,75.1,69.9,29.72,South,174,10.0,10.0,84,0.00,,,0.00,Wunderground v.1.15,2013-05-21 12:30:00,
2013-05-21 07:35:00,75.2,70.0,29.72,South,175,10.0,10.0,84,0.00,,,0.00,Wunderground v.1.15,2013-05-21 12:35:00,
2013-05-21 07:40:00,75.3,70.1,29.73,SSE,149,10.0,12.0,84,0.00,,,0.00,Wunderground v.1.15,2013-05-21 12:40:00,
2013-05-21 07:50:00,75.5,70.3,29.72,SSE,154,9.0,9.0,84,0.00,,,0.00,Wunderground v.1.15,2013-05-21 12:50:00,
2013-05-21 07:55:00,75.5,70.3,29.72,SE,134,10.0,17.0,84,0.00,,,0.00,Wunderground v.1.15,2013-05-21 12:55:00,
2013-05-21 08:00:00,75.6,70.4,29.72,South,175,11.0,11.0,84,0.00,,,0.00,Wunderground v.1.15,2013-05-21 13:00:00,
2013-05-21 08:10:00,75.8,70.6,29.72,SSE,162,9.0,12.0,84,0.00,,,0.00,Wunderground v.1.15,2013-05-21 13:10:00,
2013-05-21 08:15:00,76.0,70.8,29.72,SSW,200,10.0,16.0,84,0.00,,,0.00,Wunderground v.1.15,2013-05-21 13:15:00,
2013-05-21 08:20:00,76.0,70.5,29.72,SW,229,11.0,11.0,83,0.00,,,0.00,Wunderground v.1.15,2013-05-21 13:20:00,
2013-05-21 08:25:00,76.0,70.8,29.71,SSE,158,10.0,11.0,84,0.00,,,0.00,Wunderground v.1.15,2013-05-21 13:25:00,
2013-05-21 08:30:00,76.0,70.8,29.71,South,183,9.0,12.0,84,0.00,,,0.00,Wunderground v.1.15,2013-05-21 13:30:00,
2013-05-21 08:40:00,76.2,70.7,29.71,South,178,12.0,12.0,83,0.00,,,0.00,Wunderground v.1.15,2013-05-21 13:40:00,
2013-05-21 08:45:00,76.3,70.8,29.71,South,185,12.0,12.0,83,0.00,,,0.00,Wunderground v.1.15,2013-05-21 13:45:00,
2013-05-21 08:50:00,76.4,70.9,29.71,SW,226,13.0,13.0,83,0.00,,,0.00,Wunderground v.1.15,2013-05-21 13:50:00,
2013-05-21 09:00:00,76.6,71.0,29.71,South,187,11.0,11.0,83,0.00,,,0.00,Wunderground v.1.15,2013-05-21 14:00:00,
2013-05-21 09:10:00,76.9,71.0,29.71,SSW,198,11.0,11.0,82,0.00,,,0.00,Wunderground v.1.15,2013-05-21 14:10:00,
2013-05-21 09:20:00,77.3,71.0,29.71,South,173,11.0,12.0,81,0.00,,,0.00,Wunderground v.1.15,2013-05-21 14:20:00,
2013-05-21 09:25:00,77.7,71.4,29.71,SSE,163,11.0,14.0,81,0.00,,,0.00,Wunderground v.1.15,2013-05-21 14:25:00,
2013-05-21 09:30:00,77.9,71.2,29.71,South,184,11.0,14.0,80,0.00,,,0.00,Wunderground v.1.15,2013-05-21 14:30:00,
2013-05-21 09:35:00,78.2,71.2,29.71,SSW,207,12.0,14.0,79,0.00,,,0.00,Wunderground v.1.15,2013-05-21 14:35:00,
2013-05-21 09:40:00,78.2,70.8,29.70,South,189,13.0,16.0,78,0.00,,,0.00,Wunderground v.1.15,2013-05-21 14:40:00,
2013-05-21 09:50:00,78.9,71.5,29.71,South,189,9.0,9.0,78,0.00,,,0.00,Wunderground v.1.15,2013-05-21 14:50:00,
2013-05-21 09:55:00,79.3,71.5,29.71,SSW,192,10.0,14.0,77,0.00,,,0.00,Wunderground v.1.15,2013-05-21 14:55:00,
2013-05-21 10:00:00,79.7,71.1,29.71,South,171,13.0,18.0,75,0.00,,,0.00,Wunderground v.1.15,2013-05-21 15:00:00,
2013-05-21 10:10:00,79.7,71.1,29.72,SSW,196,13.0,18.0,75,0.00,,,0.00,Wunderground v.1.15,2013-05-21 15:10:00,
2013-05-21 10:15:00,79.7,71.1,29.73,South,171,11.0,18.0,75,0.00,,,0.00,Wunderground v.1.15,2013-05-21 15:15:00,
2013-05-21 10:20:00,79.9,70.9,29.73,SSE,165,11.0,21.0,74,0.00,,,0.00,Wunderground v.1.15,2013-05-21 15:20:00,
2013-05-21 10:25:00,80.1,71.1,29.73,South,190,11.0,21.0,74,0.00,,,0.00,Wunderground v.1.15,2013-05-21 15:25:00,
2013-05-21 10:35:00,80.6,71.1,29.72,SSW,205,11.0,11.0,73,0.00,,,0.00,Wunderground v.1.15,2013-05-21 15:35:00,
2013-05-21 10:40:00,81.6,71.7,29.72,South,190,11.0,11.0,72,0.00,,,0.00,Wunderground v.1.15,2013-05-21 15:40:00,
2013-05-21 10:45:00,82.1,71.8,29.72,SW,221,11.0,17.0,71,0.00,,,0.00,Wunderground v.1.15,2013-05-21 15:45:00,
2013-05-21 10:55:00,82.0,71.7,29.72,SSW,192,11.0,11.0,71,0.00,,,0.00,Wunderground v.1.15,2013-05-21 15:55:00,
2013-05-21 11:00:00,81.6,71.7,29.73,SW,225,11.0,11.0,72,0.00,,,0.00,Wunderground v.1.15,2013-05-21 16:00:00,
2013-05-21 11:10:00,81.4,70.7,29.72,SSW,197,10.0,17.0,70,0.00,,,0.00,Wunderground v.1.15,2013-05-21 16:10:00,
2013-05-21 11:15:00,81.2,70.9,29.72,SW,216,13.0,17.0,71,0.00,,,0.00,Wunderground v.1.15,2013-05-21 16:15:00,
2013-05-21 11:20:00,81.6,70.9,29.72,SSW,209,13.0,13.0,70,0.00,,,0.00,Wunderground v.1.15,2013-05-21 16:20:00,
2013-05-21 11:25:00,81.8,71.1,29.71,SW,215,11.0,18.0,70,0.00,,,0.00,Wunderground v.1.15,2013-05-21 16:25:00,
2013-05-21 11:30:00,81.5,70.8,29.71,SSW,198,11.0,11.0,70,0.00,,,0.00,Wunderground v.1.15,2013-05-21 16:30:00,
2013-05-21 11:35:00,81.4,70.7,29.71,SW,227,11.0,11.0,70,0.00,,,0.00,Wunderground v.1.15,2013-05-21 16:35:00,
2013-05-21 11:45:00,81.4,70.7,29.70,SSW,212,11.0,12.0,70,0.00,,,0.00,Wunderground v.1.15,2013-05-21 16:45:00,
2013-05-21 11:50:00,81.4,70.7,29.71,South,176,10.0,10.0,70,0.00,,,0.00,Wunderground v.1.15,2013-05-21 16:50:00,
2013-05-21 11:55:00,81.5,70.8,29.71,South,184,11.0,15.0,70,0.00,,,0.00,Wunderground v.1.15,2013-05-21 16:55:00,
2013-05-21 12:00:00,81.4,70.7,29.71,SSW,194,10.0,10.0,70,0.00,,,0.00,Wunderground v.1.15,2013-05-21 17:00:00,
2013-05-21 12:10:00,81.5,70.8,29.71,SW,225,10.0,13.0,70,0.00,,,0.00,Wunderground v.1.15,2013-05-21 17:10:00,
2013-05-21 12:15:00,81.6,71.3,29.70,South,189,10.0,13.0,71,0.00,,,0.00,Wunderground v.1.15,2013-05-21 17:15:00,
2013-05-21 12:25:00,81.8,71.1,29.70,SSW,201,9.0,10.0,70,0.00,,,0.00,Wunderground v.1.15,2013-05-21 17:25:00,
2013-05-21 12:30:00,81.8,71.1,29.70,SW,214,10.0,10.0,70,0.00,,,0.00,Wunderground v.1.15,2013-05-21 17:30:00,
2013-05-21 12:35:00,81.6,70.9,29.69,South,190,11.0,16.0,70,0.00,,,0.00,Wunderground v.1.15,2013-05-21 17:35:00,
2013-05-21 12:45:00,81.6,71.3,29.69,SSW,198,9.0,13.0,71,0.00,,,0.00,Wunderground v.1.15,2013-05-21 17:45:00,
2013-05-21 12:50:00,81.5,71.2,29.68,SSW,195,9.0,9.0,71,0.00,,,0.00,Wunderground v.1.15,2013-05-21 17:50:00,
2013-05-21 12:55:00,81.5,71.2,29.69,SSW,212,8.0,9.0,71,0.00,,,0.00,Wunderground v.1.15,2013-05-21 17:55:00,
2013-05-21 13:00:00,81.5,70.8,29.68,SSW,204,9.0,9.0,70,0.00,,,0.00,Wunderground v.1.15,2013-05-21 18:00:00,
2013-05-21 13:10:00,81.5,71.2,29.68,SW,224,8.0,19.0,71,0.00,,,0.00,Wunderground v.1.15,2013-05-21 18:10:00,
2013-05-21 13:15:00,81.5,71.2,29.68,SSW,211,9.0,19.0,71,0.00,,,0.00,Wunderground v.1.15,2013-05-21 18:15:00,
2013-05-21 13:20:00,81.4,70.7,29.68,SW,219,9.0,9.0,70,0.00,,,0.00,Wunderground v.1.15,2013-05-21 18:20:00,
2013-05-21 13:30:00,81.3,71.0,29.68,SSW,210,7.0,7.0,71,0.00,,,0.00,Wunderground v.1.15,2013-05-21 18:30:00,
2013-05-21 13:35:00,81.1,71.2,29.68,SSW,201,5.0,7.0,72,0.00,,,0.00,Wunderground v.1.15,2013-05-21 18:35:00,
2013-05-21 13:40:00,81.1,71.2,29.67,SSW,202,5.0,5.0,72,0.00,,,0.00,Wunderground v.1.15,2013-05-21 18:40:00,
2013-05-21 13:45:00,81.0,71.5,29.67,SW,221,6.0,8.0,73,0.00,,,0.00,Wunderground v.1.15,2013-05-21 18:45:00,
2013-05-21 13:55:00,81.1,71.2,29.67,SW,225,8.0,9.0,72,0.00,,,0.00,Wunderground v.1.15,2013-05-21 18:55:00,
2013-05-21 14:00:00,81.0,71.1,29.68,SSW,213,7.0,7.0,72,0.00,,,0.00,Wunderground v.1.15,2013-05-21 19:00:00,
2013-05-21 14:10:00,81.0,71.1,29.68,SW,225,8.0,8.0,72,0.00,,,0.00,Wunderground v.1.15,2013-05-21 19:10:00,
2013-05-21 14:15:00,81.0,71.1,29.68,SW,225,7.0,11.0,72,0.00,,,0.00,Wunderground v.1.15,2013-05-21 19:15:00,
2013-05-21 14:20:00,80.9,71.0,29.68,SSW,210,7.0,7.0,72,0.00,,,0.00,Wunderground v.1.15,2013-05-21 19:20:00,
2013-05-21 14:25:00,80.1,66.4,29.71,NW,325,9.0,15.0,63,0.00,,,0.00,Wunderground v.1.15,2013-05-21 19:25:00,
2013-05-21 14:35:00,71.9,63.9,29.71,NW,316,16.0,19.0,76,0.00,,,0.00,Wunderground v.1.15,2013-05-21 19:35:00,
2013-05-21 14:40:00,67.5,61.5,29.72,NW,324,17.0,17.0,81,0.50,,,0.09,Wunderground v.1.15,2013-05-21 19:40:00,
2013-05-21 14:45:00,65.6,61.3,29.71,NW,316,14.0,17.0,86,1.94,,,0.16,Wunderground v.1.15,2013-05-21 19:45:00,
2013-05-21 14:50:00,64.6,60.6,29.70,NW,326,13.0,13.0,87,1.19,,,0.26,Wunderground v.1.15,2013-05-21 19:50:00,
2013-05-21 14:55:00,63.6,60.3,29.72,NW,313,13.0,18.0,89,1.62,,,0.43,Wunderground v.1.15,2013-05-21 19:55:00,
2013-05-21 15:00:00,63.0,60.0,29.72,NW,325,14.0,15.0,90,0.26,,,0.45,Wunderground v.1.15,2013-05-21 20:00:00,
2013-05-21 15:10:00,62.4,59.7,29.71,WNW,283,12.0,12.0,91,0.07,,,0.46,Wunderground v.1.15,2013-05-21 20:10:00,
2013-05-21 15:15:00,62.0,59.3,29.70,NW,309,14.0,16.0,91,0.04,,,0.46,Wunderground v.1.15,2013-05-21 20:15:00,
2013-05-21 15:25:00,62.0,59.6,29.69,WNW,300,12.0,16.0,92,0.00,,,0.46,Wunderground v.1.15,2013-05-21 20:25:00,
2013-05-21 15:30:00,61.9,59.5,29.68,NW,321,12.0,18.0,92,0.00,,,0.46,Wunderground v.1.15,2013-05-21 20:30:00,
2013-05-21 15:35:00,62.0,59.6,29.70,NW,304,12.0,18.0,92,0.00,,,0.46,Wunderground v.1.15,2013-05-21 20:35:00,
2013-05-21 15:40:00,61.7,59.4,29.68,NNW,346,13.0,14.0,92,0.00,,,0.46,Wunderground v.1.15,2013-05-21 20:40:00,
2013-05-21 15:45:00,61.6,59.3,29.69,NW,317,12.0,14.0,92,0.00,,,0.46,Wunderground v.1.15,2013-05-21 20:45:00,
2013-05-21 15:55:00,61.6,59.3,29.69,NNW,333,10.0,14.0,92,0.00,,,0.46,Wunderground v.1.15,2013-05-21 20:55:00,
2013-05-21 16:00:00,61.6,59.3,29.69,NNW,328,11.0,14.0,92,0.00,,,0.46,Wunderground v.1.15,2013-05-21 21:00:00,
2013-05-21 16:10:00,61.6,59.3,29.75,NW,305,10.0,10.0,92,0.00,,,0.46,Wunderground v.1.15,2013-05-21 21:10:00,
2013-05-21 16:15:00,61.7,59.7,29.74,NNW,329,8.0,10.0,93,0.00,,,0.46,Wunderground v.1.15,2013-05-21 21:15:00,
2013-05-21 16:20:00,61.8,59.8,29.73,North,355,7.0,11.0,93,0.00,,,0.46,Wunderground v.1.15,2013-05-21 21:20:00,
2013-05-21 16:25:00,61.9,59.9,29.73,NNW,337,7.0,11.0,93,0.00,,,0.46,Wunderground v.1.15,2013-05-21 21:25:00,
2013-05-21 16:35:00,61.9,59.5,29.72,WNW,302,11.0,15.0,92,0.00,,,0.46,Wunderground v.1.15,2013-05-21 21:35:00,
2013-05-21 16:40:00,61.8,59.5,29.71,NW,325,11.0,11.0,92,0.00,,,0.46,Wunderground v.1.15,2013-05-21 21:40:00,
2013-05-21 16:45:00,61.8,59.5,29.73,NW,321,10.0,11.0,92,0.00,,,0.46,Wunderground v.1.15,2013-05-21 21:45:00,
2013-05-21 16:50:00,61.7,59.4,29.75,NW,325,9.0,9.0,92,0.00,,,0.46,Wunderground v.1.15,2013-05-21 21:50:00,
2013-05-21 17:00:00,61.8,59.1,29.76,NW,315,8.0,14.0,91,0.00,,,0.46,Wunderground v.1.15,2013-05-21 22:00:00,
2013-05-21 17:10:00,61.6,58.6,29.75,NW,320,12.0,12.0,90,0.00,,,0.46,Wunderground v.1.15,2013-05-21 22:10:00,
2013-05-21 17:20:00,62.1,59.1,29.76,NW,312,11.0,11.0,90,0.00,,,0.46,Wunderground v.1.15,2013-05-21 22:20:00,
2013-05-21 17:25:00,62.4,59.1,29.76,NNW,333,9.0,16.0,89,0.00,,,0.46,Wunderground v.1.15,2013-05-21 22:25:00,
2013-05-21 17:30:00,62.5,59.2,29.76,NNW,342,9.0,9.0,89,0.00,,,0.46,Wunderground v.1.15,2013-05-21 22:30:00,
2013-05-21 17:35:00,63.8,60.2,29.76,NW,308,9.0,11.0,88,0.00,,,0.46,Wunderground v.1.15,2013-05-21 22:35:00,
2013-05-21 17:40:00,65.0,60.7,29.75,NW,325,9.0,9.0,86,0.00,,,0.46,Wunderground v.1.15,2013-05-21 22:40:00,
2013-05-21 17:50:00,65.7,60.4,29.74,NNW,338,10.0,10.0,83,0.00,,,0.46,Wunderground v.1.15,2013-05-21 22:50:00,
2013-05-21 17:55:00,65.7,60.4,29.75,NW,325,9.0,10.0,83,0.00,,,0.46,Wunderground v.1.15,2013-05-21 22:55:00,
2013-05-21 18:00:00,65.4,59.8,29.75,NNW,329,8.0,14.0,82,0.00,,,0.46,Wunderground v.1.15,2013-05-21 23:00:00,
2013-05-21 18:10:00,64.8,59.5,29.75,NNW,342,8.0,8.0,83,0.00,,,0.46,Wunderground v.1.15,2013-05-21 23:10:00,
2013-05-21 18:15:00,64.7,59.4,29.75,North,360,8.0,13.0,83,0.00,,,0.46,Wunderground v.1.15,2013-05-21 23:15:00,
2013-05-21 18:20:00,64.5,59.2,29.75,North,5,9.0,9.0,83,0.00,,,0.46,Wunderground v.1.15,2013-05-21 23:20:00,
2013-05-21 18:30:00,64.8,59.9,29.74,NNW,348,6.0,11.0,84,0.00,,,0.46,Wunderground v.1.15,2013-05-21 23:30:00,
2013-05-21 18:35:00,65.0,59.7,29.74,North,360,6.0,11.0,83,0.00,,,0.46,Wunderground v.1.15,2013-05-21 23:35:00,
2013-05-21 18:40:00,65.3,59.7,29.75,NNW,344,7.0,7.0,82,0.00,,,0.46,Wunderground v.1.15,2013-05-21 23:40:00,
2013-05-21 18:45:00,65.9,60.2,29.75,North,9,6.0,9.0,82,0.00,,,0.46,Wunderground v.1.15,2013-05-21 23:45:00,
2013-05-21 18:50:00,66.1,60.1,29.75,North,355,6.0,7.0,81,0.00,,,0.46,Wunderground v.1.15,2013-05-21 23:50:00,
2013-05-21 19:00:00,66.9,60.5,29.76,NNW,331,6.0,6.0,80,0.00,,,0.46,Wunderground v.1.15,2013-05-22 00:00:00,
2013-05-21 19:10:00,67.3,60.2,29.75,NNW,336,5.0,5.0,78,0.00,,,0.46,Wunderground v.1.15,2013-05-22 00:10:00,
2013-05-21 19:15:00,67.2,60.5,29.76,NNE,19,4.0,7.0,79,0.00,,,0.46,Wunderground v.1.15,2013-05-22 00:15:00,
2013-05-21 19:20:00,66.9,60.2,29.76,NNE,22,4.0,4.0,79,0.00,,,0.46,Wunderground v.1.15,2013-05-22 00:20:00,
2013-05-21 19:25:00,66.5,60.1,29.76,NNE,20,4.0,8.0,80,0.00,,,0.46,Wunderground v.1.15,2013-05-22 00:25:00,
2013-05-21 19:30:00,66.2,59.8,29.76,NNE,18,5.0,8.0,80,0.00,,,0.46,Wunderground v.1.15,2013-05-22 00:30:00,
2013-05-21 19:35:00,65.7,59.7,29.76,NNE,25,6.0,8.0,81,0.00,,,0.46,Wunderground v.1.15,2013-05-22 00:35:00,
2013-05-21 19:45:00,65.2,59.6,29.77,North,360,4.0,6.0,82,0.00,,,0.46,Wunderground v.1.15,2013-05-22 00:45:00,
2013-05-21 19:50:00,65.1,59.5,29.77,NNW,338,5.0,7.0,82,0.00,,,0.46,Wunderground v.1.15,2013-05-22 00:50:00,
2013-05-21 19:55:00,64.9,59.6,29.77,NNW,331,5.0,7.0,83,0.00,,,0.46,Wunderground v.1.15,2013-05-22 00:55:00,
2013-05-21 20:00:00,64.7,59.4,29.77,NNW,340,5.0,6.0,83,0.00,,,0.46,Wunderground v.1.15,2013-05-22 01:00:00,
2013-05-21 20:10:00,64.5,59.6,29.78,North,355,4.0,8.0,84,0.00,,,0.46,Wunderground v.1.15,2013-05-22 01:10:00,
2013-05-21 20:15:00,64.3,59.4,29.78,NNW,342,3.0,8.0,84,0.00,,,0.46,Wunderground v.1.15,2013-05-22 01:15:00,
2013-05-21 20:25:00,63.9,59.3,29.79,North,355,3.0,7.0,85,0.00,,,0.46,Wunderground v.1.15,2013-05-22 01:25:00,
2013-05-21 20:30:00,63.7,59.1,29.79,North,9,6.0,6.0,85,0.00,,,0.46,Wunderground v.1.15,2013-05-22 01:30:00,
2013-05-21 20:35:00,63.5,58.9,29.79,North,360,5.0,6.0,85,0.00,,,0.46,Wunderground v.1.15,2013-05-22 01:35:00,
2013-05-21 20:40:00,63.3,59.0,29.80,North,355,4.0,7.0,86,0.00,,,0.46,Wunderground v.1.15,2013-05-22 01:40:00,
2013-05-21 20:45:00,63.2,58.9,29.80,North,355,4.0,7.0,86,0.00,,,0.46,Wunderground v.1.15,2013-05-22 01:45:00,
2013-05-21 20:55:00,63.0,59.1,29.81,North,11,4.0,4.0,87,0.00,,,0.46,Wunderground v.1.15,2013-05-22 01:55:00,
2013-05-21 21:00:00,62.9,59.0,29.81,North,360,4.0,7.0,87,0.00,,,0.46,Wunderground v.1.15,2013-05-22 02:00:00,
2013-05-21 21:10:00,62.8,58.9,29.81,NNW,343,5.0,7.0,87,0.00,,,0.46,Wunderground v.1.15,2013-05-22 02:10:00,
2013-05-21 21:15:00,62.7,58.8,29.81,North,355,4.0,7.0,87,0.00,,,0.46,Wunderground v.1.15,2013-05-22 02:15:00,
2013-05-21 21:20:00,62.7,58.8,29.81,NNW,338,3.0,3.0,87,0.00,,,0.46,Wunderground v.1.15,2013-05-22 02:20:00,
2013-05-21 21:25:00,62.6,58.7,29.81,NNW,339,3.0,6.0,87,0.00,,,0.46,Wunderground v.1.15,2013-05-22 02:25:00,
2013-05-21 21:35:00,62.4,58.5,29.81,NNW,345,2.0,2.0,87,0.00,,,0.46,Wunderground v.1.15,2013-05-22 02:35:00,
2013-05-21 21:40:00,62.3,58.4,29.81,North,349,3.0,7.0,87,0.00,,,0.46,Wunderground v.1.15,2013-05-22 02:40:00,
2013-05-21 21:45:00,62.3,58.4,29.81,North,355,4.0,7.0,87,0.00,,,0.46,Wunderground v.1.15,2013-05-22 02:45:00,
2013-05-21 21:50:00,62.2,58.3,29.81,NNW,344,3.0,5.0,87,0.00,,,0.46,Wunderground v.1.15,2013-05-22 02:50:00,
2013-05-21 22:00:00,62.1,58.5,29.82,NNW,344,2.0,7.0,88,0.00,,,0.46,Wunderground v.1.15,2013-05-22 03:00:00,
2013-05-21 22:10:00,61.9,58.3,29.83,NNW,344,1.0,1.0,88,0.00,,,0.46,Wunderground v.1.15,2013-05-22 03:10:00,
2013-05-21 22:15:00,61.7,58.1,29.82,NNW,344,0.0,1.0,88,0.00,,,0.46,Wunderground v.1.15,2013-05-22 03:15:00,
2013-05-21 22:20:00,61.6,58.0,29.82,NNW,342,0.0,5.0,88,0.00,,,0.46,Wunderground v.1.15,2013-05-22 03:20:00,
2013-05-21 22:25:00,61.5,57.9,29.82,NNW,342,2.0,5.0,88,0.00,,,0.46,Wunderground v.1.15,2013-05-22 03:25:00,
2013-05-21 22:30:00,61.5,57.9,29.83,NNW,342,1.0,1.0,88,0.00,,,0.46,Wunderground v.1.15,2013-05-22 03:30:00,
2013-05-21 22:35:00,61.4,57.8,29.83,NNW,342,0.0,1.0,88,0.00,,,0.46,Wunderground v.1.15,2013-05-22 03:35:00,
2013-05-21 22:45:00,61.2,57.9,29.83,NNW,342,0.0,0.0,89,0.00,,,0.46,Wunderground v.1.15,2013-05-22 03:45:00,
2013-05-21 22:50:00,61.1,57.8,29.83,NNW,342,0.0,0.0,89,0.00,,,0.46,Wunderground v.1.15,2013-05-22 03:50:00,
2013-05-21 22:55:00,61.0,57.7,29.84,NNW,342,0.0,0.0,89,0.00,,,0.46,Wunderground v.1.15,2013-05-22 03:55:00,
2013-05-21 23:00:00,60.9,57.6,29.83,NNW,342,0.0,0.0,89,0.00,,,0.46,Wunderground v.1.15,2013-05-22 04:00:00,
2013-05-21 23:05:00,60.7,57.4,29.83,NNW,342,0.0,0.0,89,0.00,,,0.46,Wunderground v.1.15,2013-05-22 04:05:00,
2013-05-21 23:10:00,60.6,57.3,29.84,NNW,342,0.0,0.0,89,0.00,,,0.46,Wunderground v.1.15,2013-05-22 04:10:00,
2013-05-21 23:15:00,60.5,57.2,29.84,NNW,342,0.0,0.0,89,0.00,,,0.46,Wunderground v.1.15,2013-05-22 04:15:00,
2013-05-21 23:25:00,60.1,56.8,29.84,NNW,342,0.0,0.0,89,0.00,,,0.46,Wunderground v.1.15,2013-05-22 04:25:00,
2013-05-21 23:30:00,59.8,56.6,29.85,NNW,342,0.0,0.0,89,0.00,,,0.46,Wunderground v.1.15,2013-05-22 04:30:00,
2013-05-21 23:35:00,59.6,56.4,29.85,NNW,342,0.0,0.0,89,0.00,,,0.46,Wunderground v.1.15,2013-05-22 04:35:00,
2013-05-21 23:40:00,59.3,56.1,29.85,NNW,342,0.0,0.0,89,0.00,,,0.46,Wunderground v.1.15,2013-05-22 04:40:00,
2013-05-21 23:45:00,59.1,56.2,29.85,NNW,342,0.0,0.0,90,0.00,,,0.46,Wunderground v.1.15,2013-05-22 04:45:00,
2013-05-21 23:50:00,59.0,56.7,29.85,NNW,342,0.0,0.0,92,0.00,,,0.46,Wunderground v.1.15,2013-05-22 04:50:00,
2013-05-21 23:55:00,58.7,55.8,29.85,NNW,342,0.0,0.0,90,0.00,,,0.46,Wunderground v.1.15,2013-05-22 04:55:00,